• In Moldova, Republic
  • List of Countries
  • For 7 days
  • Water Temperature
  • Satellite Maps
  • Weather Map
  • Weather Widgets
  • user-avatar
    Login

    Hourly Weather Shaki

    Today, 24 February, Friday

    Time Temperature Precipitation Wind Pressure Humidity
    00:00 +2°C° 0 mm 3 mps 735 mmHg 55%
    01:00 +2°C° 0 mm 3 mps 734 mmHg 56%
    02:00 +2°C° 0 mm 3 mps 734 mmHg 56%
    03:00 +3°C° 0 mm 4 mps 734 mmHg 57%
    04:00 +3°C° 0 mm 4 mps 734 mmHg 58%
    05:00 +3°C° 0 mm 4 mps 734 mmHg 58%
    06:00 +3°C° 0 mm 4 mps 734 mmHg 59%
    07:00 +4°C° 0 mm 4 mps 735 mmHg 57%
    08:00 +6°C° 0 mm 4 mps 735 mmHg 54%
    09:00 +8°C° 0 mm 4 mps 736 mmHg 52%
    10:00 +9°C° 0 mm 5 mps 736 mmHg 50%
    11:00 +10°C° 0 mm 5 mps 736 mmHg 49%
    12:00 +13°C° 0 mm 5 mps 736 mmHg 47%
    13:00 +13°C° 0 mm 5 mps 736 mmHg 47%
    14:00 +13°C° 0 mm 5 mps 737 mmHg 47%
    15:00 +13°C° 0 mm 4 mps 737 mmHg 47%
    16:00 +11°C° 0 mm 3 mps 737 mmHg 51%
    17:00 +9°C° 0 mm 3 mps 738 mmHg 54%
    18:00 +7°C° 0 mm 2 mps 738 mmHg 58%
    19:00 +7°C° 0 mm 2 mps 739 mmHg 57%
    20:00 +6°C° 0 mm 2 mps 739 mmHg 57%
    21:00 +6°C° 0 mm 2 mps 740 mmHg 56%
    22:00 +6°C° 0 mm 2 mps 740 mmHg 58%
    23:00 +6°C° 0 mm 1 mps 740 mmHg 59%

    Tomorrow, 25 February, Saturday

    Time Temperature Precipitation Wind Pressure Humidity
    00:00 +6°C° 0 mm 1 mps 740 mmHg 61%
    01:00 +6°C° 0 mm 1 mps 740 mmHg 64%
    02:00 +5°C° 0 mm 1 mps 740 mmHg 67%
    03:00 +5°C° 0 mm 1 mps 740 mmHg 69%
    04:00 +4°C° 0 mm 2 mps 739 mmHg 69%
    05:00 +4°C° 0 mm 2 mps 739 mmHg 69%
    06:00 +4°C° 0 mm 2 mps 739 mmHg 68%
    07:00 +6°C° 0 mm 2 mps 739 mmHg 63%
    08:00 +9°C° 0 mm 2 mps 739 mmHg 57%
    09:00 +12°C° 0 mm 2 mps 739 mmHg 52%
    10:00 +13°C° 0 mm 2 mps 739 mmHg 48%
    11:00 +14°C° 0 mm 2 mps 738 mmHg 45%
    12:00 +16°C° 0 mm 3 mps 738 mmHg 42%
    13:00 +16°C° 0 mm 3 mps 737 mmHg 41%
    14:00 +16°C° 0 mm 3 mps 737 mmHg 40%
    15:00 +16°C° 0 mm 2 mps 736 mmHg 39%
    16:00 +14°C° 0 mm 2 mps 736 mmHg 42%
    17:00 +12°C° 0 mm 2 mps 736 mmHg 45%
    18:00 +8°C° 0 mm 2 mps 736 mmHg 48%
    19:00 +8°C° 0 mm 2 mps 736 mmHg 47%
    20:00 +7°C° 0 mm 2 mps 736 mmHg 46%
    21:00 +7°C° 0 mm 2 mps 736 mmHg 44%
    22:00 +7°C° 0 mm 2 mps 736 mmHg 43%
    23:00 +7°C° 0 mm 2 mps 735 mmHg 42%

    Day after tomorrow, 26 February, Sunday

    Time Temperature Precipitation Wind Pressure Humidity
    00:00 +6°C° 0 mm 2 mps 735 mmHg 41%
    01:00 +5°C° 0 mm 3 mps 735 mmHg 41%
    02:00 +5°C° 0 mm 3 mps 734 mmHg 41%
    03:00 +5°C° 0 mm 3 mps 734 mmHg 41%
    04:00 +5°C° 0 mm 3 mps 734 mmHg 42%
    05:00 +5°C° 0 mm 3 mps 734 mmHg 44%
    06:00 +5°C° 0 mm 3 mps 733 mmHg 45%
    07:00 +7°C° 0 mm 4 mps 734 mmHg 44%
    08:00 +10°C° 0 mm 4 mps 734 mmHg 43%
    09:00 +12°C° 0 mm 4 mps 734 mmHg 43%
    10:00 +13°C° 0 mm 5 mps 734 mmHg 41%
    11:00 +14°C° 0 mm 5 mps 734 mmHg 39%
    12:00 +15°C° 0 mm 6 mps 734 mmHg 37%
    13:00 +15°C° 0 mm 6 mps 734 mmHg 38%
    14:00 +15°C° 0 mm 6 mps 734 mmHg 39%
    15:00 +15°C° 0 mm 6 mps 734 mmHg 40%
    16:00 +13°C° 0 mm 5 mps 735 mmHg 45%
    17:00 +11°C° 0 mm 4 mps 736 mmHg 50%
    18:00 +9°C° 0 mm 3 mps 736 mmHg 54%
    19:00 +9°C° 0 mm 3 mps 737 mmHg 55%
    20:00 +9°C° 0 mm 3 mps 738 mmHg 55%
    21:00 +8°C° 0 mm 2 mps 739 mmHg 56%
    22:00 +7°C° 0 mm 2 mps 739 mmHg 59%
    23:00 +7°C° 0 mm 2 mps 740 mmHg 62%

    27 February, Monday

    Time Temperature Precipitation Wind Pressure Humidity
    00:00 +6°C° 0 mm 2 mps 740 mmHg 64%
    01:00 +4°C° 0 mm 3 mps 740 mmHg 69%
    02:00 +4°C° 0 mm 3 mps 741 mmHg 74%
    03:00 +3°C° 0 mm 3 mps 741 mmHg 79%
    04:00 +3°C° 0 mm 3 mps 741 mmHg 80%
    05:00 +2°C° 0 mm 3 mps 742 mmHg 81%
    06:00 +2°C° 0 mm 3 mps 742 mmHg 81%
    07:00 +3°C° 0 mm 3 mps 742 mmHg 76%
    08:00 +4°C° 0 mm 3 mps 743 mmHg 72%
    09:00 +4°C° 0 mm 3 mps 743 mmHg 67%
    10:00 +5°C° 0 mm 3 mps 742 mmHg 64%
    11:00 +7°C° 0 mm 3 mps 742 mmHg 60%
    12:00 +8°C° 0 mm 3 mps 741 mmHg 57%
    13:00 +8°C° 0 mm 3 mps 741 mmHg 56%
    14:00 +9°C° 0 mm 2 mps 740 mmHg 56%
    15:00 +9°C° 0 mm 2 mps 739 mmHg 56%
    16:00 +7°C° 0 mm 2 mps 739 mmHg 61%
    17:00 +7°C° 0 mm 1 mps 739 mmHg 67%
    18:00 +6°C° 0 mm 1 mps 739 mmHg 72%
    19:00 +5°C° 0 mm 1 mps 740 mmHg 73%
    20:00 +5°C° 0 mm 1 mps 740 mmHg 74%
    21:00 +4°C° 0 mm 1 mps 740 mmHg 74%
    22:00 +4°C° 0 mm 1 mps 740 mmHg 75%
    23:00 +4°C° 0 mm 1 mps 739 mmHg 75%

    28 February, Tuesday

    Time Temperature Precipitation Wind Pressure Humidity
    00:00 +4°C° 0 mm 1 mps 739 mmHg 75%
    01:00 +4°C° 0 mm 1 mps 739 mmHg 75%
    02:00 +4°C° 0 mm 1 mps 739 mmHg 75%
    03:00 +4°C° 0 mm 1 mps 739 mmHg 75%
    04:00 +4°C° 0 mm 1 mps 739 mmHg 77%
    05:00 +3°C° 0 mm 1 mps 739 mmHg 78%
    06:00 +3°C° 0 mm 1 mps 739 mmHg 80%
    07:00 +4°C° 0 mm 0 mps 739 mmHg 73%
    08:00 +6°C° 0 mm 0 mps 739 mmHg 66%
    09:00 +8°C° 0 mm 0 mps 739 mmHg 58%
    10:00 +11°C° 0 mm 1 mps 739 mmHg 55%
    11:00 +12°C° 0 mm 1 mps 739 mmHg 52%
    12:00 +13°C° 0 mm 1 mps 739 mmHg 49%
    13:00 +14°C° 0 mm 1 mps 738 mmHg 48%
    14:00 +14°C° 0 mm 1 mps 738 mmHg 48%
    15:00 +14°C° 0 mm 1 mps 738 mmHg 47%
    16:00 +12°C° 0 mm 1 mps 738 mmHg 55%
    17:00 +10°C° 0 mm 1 mps 738 mmHg 63%
    18:00 +8°C° 0 mm 1 mps 739 mmHg 70%
    19:00 +8°C° 0 mm 1 mps 739 mmHg 71%
    20:00 +8°C° 0 mm 1 mps 739 mmHg 72%
    21:00 +7°C° 0 mm 1 mps 739 mmHg 73%
    22:00 +7°C° 0 mm 1 mps 739 mmHg 75%
    23:00 +6°C° 0 mm 1 mps 739 mmHg 76%

    1 March, Wednesday

    Time Temperature Precipitation Wind Pressure Humidity
    00:00 +6°C° 0 mm 1 mps 739 mmHg 77%
    01:00 +6°C° 0 mm 1 mps 739 mmHg 78%
    02:00 +5°C° 0 mm 1 mps 739 mmHg 79%
    03:00 +4°C° 0 mm 0 mps 739 mmHg 80%
    04:00 +4°C° 0 mm 0 mps 739 mmHg 81%
    05:00 +4°C° 0 mm 0 mps 739 mmHg 81%
    06:00 +4°C° 0 mm 0 mps 739 mmHg 82%
    07:00 +6°C° 0 mm 0 mps 739 mmHg 73%
    08:00 +8°C° 0 mm 0 mps 739 mmHg 64%
    09:00 +10°C° 0 mm 0 mps 739 mmHg 54%
    10:00 +13°C° 0 mm 1 mps 739 mmHg 51%
    11:00 +14°C° 0 mm 1 mps 739 mmHg 48%
    12:00 +15°C° 0 mm 1 mps 738 mmHg 45%
    13:00 +15°C° 0 mm 1 mps 738 mmHg 45%
    14:00 +15°C° 0 mm 1 mps 737 mmHg 45%
    15:00 +16°C° 0 mm 1 mps 737 mmHg 45%
    16:00 +13°C° 0 mm 1 mps 737 mmHg 52%
    17:00 +11°C° 0 mm 1 mps 737 mmHg 59%
    18:00 +9°C° 0 mm 1 mps 737 mmHg 66%
    19:00 +9°C° 0 mm 1 mps 737 mmHg 68%
    20:00 +8°C° 0 mm 1 mps 737 mmHg 69%
    21:00 +8°C° 0 mm 1 mps 737 mmHg 70%
    22:00 +8°C° 0 mm 1 mps 737 mmHg 71%
    23:00 +7°C° 0 mm 1 mps 737 mmHg 72%
    Show more